Theta_e
301 293 290 290 291 289 291 292 294 292 291 290 290 289 287 287 289 292 292 292 293 289 288 288 288 289 290 289 289 289 289 287 286 286 286 285 286 287 286 286 286 286 287 290 290 289 288 289 288 288 288 288 289 289 289 289 290 290 290 290 290 291 292 292 292 292 292 291 292 293 293 293 295 296 297 298 299 299 300 301 303 307 308 308 310 312
300 292 293 293 291 291 291 293 293 291 290 289 289 288 287 289 286 292 291 292 292 288 286 288 289 289 290 289 289 289 288 286 285 285 285 285 286 286 285 286 285 286 289 289 287 288 287 286 288 288 287 288 287 288 289 289 289 290 290 290 290 291 291 291 291 292 292 292 292 292 293 293 294 294 295 296 297 299 301 301 302 303 303 304 307 309
294 290 292 292 292 294 293 293 292 290 290 290 287 286 286 287 291 292 291 292 292 290 286 288 287 287 290 289 289 287 287 286 286 286 285 285 285 285 286 285 285 284 285 285 285 286 285 287 287 286 287 287 287 288 288 289 289 289 290 290 290 291 291 291 292 292 292 292 293 293 293 293 293 295 297 297 297 298 300 301 301 301 302 303 303 306
289 294 294 294 294 290 291 291 290 290 291 287 287 285 283 289 286 283 290 291 291 288 286 287 286 287 290 289 288 288 286 286 288 288 288 287 284 284 285 284 284 283 283 283 284 284 284 285 285 286 286 287 287 287 288 288 289 290 290 290 290 290 291 291 291 292 292 292 293 294 294 294 294 293 295 296 297 297 299 300 300 300 302 302 303 305
289 293 294 294 295 292 290 292 291 289 286 291 291 287 287 288 287 286 286 289 290 291 289 286 284 283 286 284 285 286 287 287 287 287 286 286 287 287 287 286 285 284 283 283 283 283 284 284 284 285 286 286 287 287 287 288 289 290 289 290 290 290 291 291 291 291 292 292 292 293 293 293 293 293 293 293 293 295 296 297 298 299 301 302 303 304
291 294 295 292 295 294 293 290 290 291 285 286 290 289 288 288 286 287 288 287 283 282 285 286 276 278 285 285 284 284 285 284 285 284 284 284 284 285 283 284 284 286 285 284 283 283 283 284 284 285 285 286 286 287 288 288 289 289 290 290 290 290 290 290 291 291 291 291 290 290 290 289 289 289 290 290 291 292 294 295 298 299 300 302 302 303
290 293 295 294 294 294 293 291 293 292 286 284 285 289 288 286 287 286 286 284 277 276 284 286 276 275 284 284 284 284 284 283 284 283 283 284 284 283 283 284 283 283 283 284 284 283 283 284 284 285 285 286 286 287 288 289 289 289 290 290 290 290 290 291 290 290 291 290 290 290 290 290 289 289 291 292 292 293 294 297 297 299 300 300 301 302
291 291 291 293 292 290 289 287 291 290 286 281 288 289 287 287 285 285 285 283 280 286 287 286 283 276 276 282 285 285 284 282 282 282 282 283 283 282 283 283 283 283 283 283 283 282 283 284 284 284 285 286 286 287 288 288 289 289 289 289 289 290 290 290 290 290 290 289 290 289 289 290 289 290 290 291 292 293 294 295 296 298 299 300 301 302
291 291 290 291 290 286 286 290 291 292 286 286 286 288 285 286 285 285 284 281 282 280 277 280 284 276 275 282 285 285 281 280 280 281 282 282 282 282 282 283 282 283 283 283 282 283 283 283 284 285 285 286 287 287 288 288 288 289 289 289 289 289 289 289 289 289 290 289 287 286 286 286 288 290 291 292 292 292 293 293 295 296 297 299 300 301
292 292 292 291 287 283 289 287 289 291 285 289 287 289 288 287 286 285 281 281 281 277 274 278 282 275 276 281 281 283 281 279 280 281 281 281 282 282 282 283 283 282 283 283 282 283 284 284 285 286 286 286 286 288 289 288 288 288 288 288 288 288 288 289 289 288 287 286 286 284 284 284 285 287 289 290 290 291 291 291 293 294 296 297 297 299
291 293 295 289 287 290 287 288 290 288 290 290 289 286 286 286 285 284 282 281 277 272 275 280 282 279 272 279 280 279 282 282 281 280 281 282 282 282 282 282 282 282 282 282 283 283 284 285 285 285 285 286 287 287 287 287 287 287 287 286 286 287 288 288 287 286 285 285 284 283 283 282 282 283 284 286 289 290 290 290 292 294 295 296 296 297
291 292 288 290 294 291 290 288 291 290 290 289 284 282 281 280 281 279 279 279 271 271 277 276 278 279 270 275 280 280 281 282 281 280 279 280 280 281 282 282 282 281 282 282 283 283 284 284 285 285 285 285 286 286 286 286 286 287 286 285 285 285 285 285 285 284 284 284 283 283 282 282 282 282 282 283 286 289 289 289 290 292 293 295 295 296
284 286 290 292 293 293 289 286 287 288 290 287 283 281 276 274 276 272 275 268 272 270 275 275 277 273 274 280 280 280 281 281 281 281 280 279 279 280 281 281 281 282 281 282 282 283 283 283 284 284 285 285 285 285 285 285 285 285 285 284 284 283 283 283 283 282 282 282 282 282 282 282 282 281 281 282 284 288 289 290 290 291 292 294 294 294
284 286 289 289 289 293 292 283 282 282 284 284 281 279 276 272 271 269 271 274 272 277 276 276 278 273 277 279 283 280 281 282 282 281 281 280 279 280 281 281 281 281 281 281 282 282 282 283 283 284 284 284 284 284 284 284 284 284 284 283 282 282 282 282 281 281 281 281 281 282 281 280 280 280 281 282 283 286 288 290 291 292 293 293 293 293
279 281 284 285 283 291 291 289 285 283 281 280 284 279 278 276 272 270 272 268 271 272 276 279 274 269 270 274 280 281 282 282 282 281 281 281 280 281 281 280 280 280 280 281 281 282 282 283 283 284 284 284 284 284 284 283 283 283 282 282 281 280 280 280 280 280 280 280 280 279 279 279 280 281 282 283 284 285 286 287 288 291 293 293 294 294
282 284 287 288 285 289 289 289 288 287 283 283 285 284 278 276 281 275 276 272 271 272 271 271 270 274 277 281 281 282 282 281 282 281 280 280 281 280 280 280 280 280 280 281 281 282 282 283 283 284 284 284 283 283 283 282 282 282 281 281 280 280 279 279 279 278 278 278 278 278 278 278 280 281 280 280 281 282 284 286 287 290 293 295 294 294
284 281 283 288 288 282 281 287 290 291 279 282 282 279 280 282 281 276 276 278 275 273 271 274 274 278 281 280 280 281 280 280 280 279 279 279 279 279 280 279 279 280 279 280 281 281 282 282 283 283 283 283 283 283 282 282 282 281 280 280 279 279 279 278 278 277 277 277 277 277 277 277 277 278 278 278 279 280 281 281 283 287 292 295 295 293
282 283 284 286 284 286 287 286 288 288 288 282 277 280 284 285 282 278 271 272 271 267 269 272 271 274 275 270 279 279 278 279 278 278 278 279 279 278 279 279 279 279 279 280 280 281 282 282 282 283 283 283 283 282 282 281 281 281 280 279 279 279 278 278 277 277 277 276 276 277 276 276 277 277 277 278 278 279 279 280 282 284 285 290 293 293
285 281 284 283 286 286 287 288 285 287 288 282 281 287 278 273 273 276 271 267 268 268 270 274 273 274 274 275 276 276 277 277 277 278 277 277 278 278 278 278 278 279 279 280 280 281 281 282 282 282 282 282 282 282 281 281 281 280 279 279 279 278 278 277 277 277 277 276 276 276 276 275 275 276 277 277 278 278 279 280 281 282 284 286 291 291
285 282 282 283 283 285 285 283 277 279 285 285 285 280 285 278 278 273 275 273 274 269 270 271 274 270 277 276 277 278 278 277 277 277 277 278 278 278 278 278 278 279 279 279 280 281 281 282 281 281 281 281 281 281 281 280 280 279 279 279 278 278 277 276 276 275 274 275 275 274 274 275 275 276 277 277 276 277 278 280 282 283 283 285 286 288
281 284 278 281 283 283 277 281 279 280 276 277 277 276 279 279 281 277 276 273 272 269 270 269 267 272 277 279 278 277 278 278 278 277 278 278 278 278 278 278 278 279 280 280 281 281 281 281 281 281 281 281 281 281 280 279 279 278 278 277 277 276 276 275 275 275 274 274 273 274 274 273 273 274 276 276 276 276 277 278 281 283 283 284 284 285
281 281 279 279 276 277 280 283 283 283 283 278 277 277 278 277 273 271 270 276 271 270 268 267 267 274 279 282 281 279 279 279 279 278 278 278 278 278 278 278 278 279 280 280 281 280 281 281 281 281 281 281 280 280 279 279 278 278 277 277 276 276 275 275 274 274 274 274 274 273 273 273 273 273 274 274 275 276 277 278 279 280 281 281 283 285
284 282 280 278 280 281 283 284 285 284 283 282 280 278 281 279 277 273 268 271 272 272 275 273 269 271 280 280 280 280 280 279 280 279 278 278 278 278 278 279 279 280 280 281 280 280 280 280 280 280 280 279 279 279 278 278 278 278 277 276 276 275 274 274 274 274 273 273 273 272 273 273 272 273 273 273 274 275 276 277 278 279 279 280 282 283
289 280 277 280 282 280 280 282 283 283 283 279 279 280 278 276 278 276 275 276 272 272 270 271 269 272 278 281 280 280 281 280 280 279 278 279 279 279 278 278 279 280 280 280 280 280 280 280 280 279 279 279 279 278 278 278 278 277 277 276 276 275 275 274 274 273 273 272 272 272 272 272 272 272 273 273 274 274 275 276 277 278 278 279 280 280
280 281 278 275 275 277 275 276 278 280 280 276 275 278 280 280 280 279 278 276 270 272 272 270 265 271 279 280 281 281 281 280 279 279 279 279 279 279 278 279 279 279 280 279 279 280 280 279 279 278 278 278 278 278 278 278 277 277 276 276 275 275 274 273 273 273 272 272 271 271 271 271 272 271 272 272 273 273 274 275 276 277 277 278 278 279
284 281 279 274 274 273 274 272 271 273 275 276 278 278 280 278 277 275 271 273 270 273 274 270 270 276 279 281 281 280 280 280 280 280 280 279 279 278 278 278 279 279 279 279 279 279 278 278 278 278 278 278 277 277 277 277 277 276 276 275 275 275 274 273 273 273 272 271 271 271 271 271 271 271 271 271 272 273 273 274 275 275 276 276 277 278
281 281 280 281 279 278 281 277 279 281 276 272 275 276 277 279 279 278 276 272 270 273 272 274 274 274 277 279 279 280 280 279 278 278 278 278 278 278 278 278 279 279 279 279 279 278 278 278 277 277 277 277 277 277 276 276 276 275 275 275 275 274 274 273 273 271 271 271 270 270 270 270 270 270 270 271 271 272 272 273 273 274 274 276 276 276
280 276 279 280 281 282 283 281 280 280 275 276 274 275 277 277 278 276 273 271 276 273 268 275 275 274 275 277 279 279 279 279 278 278 278 278 278 278 278 278 281 279 279 278 278 277 277 277 277 276 276 276 276 276 276 275 275 274 274 274 274 273 273 272 271 271 271 270 270 270 270 270 270 270 270 270 271 271 271 272 272 273 273 275 275 275
279 276 281 280 279 280 281 281 280 277 277 276 276 276 276 277 276 274 274 276 275 272 270 274 275 274 276 277 279 279 279 278 277 277 278 279 278 278 277 277 277 277 278 277 277 277 276 276 276 275 275 275 275 275 274 274 274 274 273 273 273 273 273 272 271 271 270 269 269 269 269 270 270 270 270 270 270 269 270 270 271 271 272 273 274 275
279 276 279 280 278 279 280 280 280 279 278 277 277 277 277 276 276 276 276 276 276 274 276 275 275 275 278 279 280 280 281 279 278 279 278 277 277 277 277 277 277 277 277 277 277 276 276 275 275 275 275 274 274 274 273 273 273 272 272 272 273 272 272 272 271 269 269 269 269 269 269 269 269 269 269 269 268 268 269 269 270 270 271 272 273 274
279 275 280 278 276 276 278 279 279 278 277 275 276 277 277 277 276 276 276 276 277 275 276 275 275 274 279 281 281 282 280 280 278 277 277 277 277 276 276 276 277 277 277 277 276 275 275 275 274 274 274 273 273 273 272 272 272 271 271 271 272 272 271 271 270 269 269 268 268 269 268 268 268 268 268 268 268 268 268 268 269 269 270 271 273 274
281 275 279 276 273 274 277 276 277 277 276 275 274 275 276 275 274 275 274 276 275 273 275 274 273 274 279 281 281 279 278 278 276 277 277 277 277 276 276 276 276 276 276 276 275 275 274 274 273 273 273 272 272 272 271 271 271 270 270 271 271 271 271 270 269 268 268 268 268 268 268 267 267 267 267 267 267 267 268 268 268 269 270 271 272 274
279 276 274 275 272 273 275 276 274 273 273 270 271 274 276 277 277 278 278 278 277 277 274 271 273 278 279 280 278 277 277 277 276 277 276 276 276 276 275 276 276 276 276 275 274 274 274 273 273 272 272 272 271 271 271 271 270 269 269 270 270 270 269 269 268 268 268 268 267 267 267 267 266 266 266 266 266 267 267 267 268 268 269 270 272 274
279 278 275 278 270 271 271 273 274 270 265 269 277 279 278 275 276 275 275 277 278 278 276 278 278 279 279 278 276 275 276 276 276 278 278 277 276 276 276 275 275 275 275 274 274 273 273 273 272 272 272 271 271 271 271 270 269 269 269 269 269 269 268 268 267 267 267 267 267 267 267 266 266 265 265 265 266 266 266 266 267 268 268 269 271 273
277 278 275 278 271 270 272 272 268 265 268 277 277 279 280 279 278 277 277 278 278 279 279 278 278 279 280 278 278 277 277 277 277 277 277 277 278 276 275 275 275 274 274 273 273 273 272 272 271 271 270 270 270 270 269 268 268 268 268 268 268 268 267 267 267 266 266 266 267 267 266 265 264 264 264 264 265 265 265 265 266 266 267 268 270 272
277 276 276 275 273 272 269 269 264 267 275 275 275 277 279 278 277 276 275 277 278 278 278 277 278 279 279 278 277 277 277 277 277 277 278 277 276 275 275 274 274 273 273 273 272 272 271 271 270 270 269 270 269 268 268 267 268 267 267 267 267 267 267 266 266 266 266 266 266 265 265 264 264 263 264 264 264 264 264 265 265 266 267 268 269 271
280 278 277 271 277 265 271 268 270 276 275 277 275 275 275 273 274 274 269 273 277 278 278 277 278 278 277 277 277 277 277 276 275 276 277 277 276 276 275 274 274 273 273 272 272 271 271 271 270 269 269 268 268 267 267 267 267 266 265 265 266 266 266 266 265 265 265 264 264 264 264 263 263 263 263 263 263 263 264 264 265 266 268 268 269 270
281 276 278 271 270 272 266 268 269 268 266 272 278 280 281 280 279 278 274 272 278 278 279 278 277 277 276 276 276 276 276 273 271 274 275 275 276 275 275 274 274 273 272 272 271 271 270 270 269 269 268 267 266 266 266 266 265 265 265 265 265 265 265 265 264 264 264 263 263 263 263 263 263 262 262 263 263 263 264 265 266 267 268 268 268 270
281 280 278 275 272 272 269 267 266 265 269 275 274 278 279 279 278 277 272 269 276 278 279 278 277 276 276 275 275 275 272 267 268 274 275 275 274 274 273 273 272 272 271 271 270 269 269 269 268 267 266 266 264 265 265 264 264 264 264 264 264 264 264 263 263 263 263 262 263 263 263 263 262 262 262 262 263 264 264 265 266 267 268 268 269 270
276 276 275 272 271 272 270 268 267 271 271 275 276 277 278 279 279 275 265 267 276 278 278 278 277 276 276 276 276 274 272 267 270 274 275 274 274 274 273 272 271 271 270 270 269 269 269 268 266 265 264 264 264 264 264 263 263 263 263 263 264 263 263 263 263 263 263 262 262 262 262 262 262 262 262 262 263 264 265 266 267 267 267 268 269 270
273 273 274 269 271 272 273 269 271 272 278 277 277 277 278 279 276 266 265 272 277 277 278 278 277 277 277 276 276 271 275 276 276 276 274 274 273 273 273 272 271 270 269 269 269 270 267 266 265 264 264 264 264 263 263 263 262 262 262 263 262 262 262 263 263 262 262 262 261 261 261 262 262 261 262 263 264 266 267 267 267 268 268 269 270 271
272 272 272 274 269 269 271 269 269 272 278 278 278 278 279 275 266 267 275 278 277 276 277 278 277 277 277 277 276 276 277 277 276 275 274 273 273 272 272 271 270 270 269 269 269 267 265 264 263 263 263 263 263 263 262 262 261 261 262 262 261 262 262 262 262 262 261 260 260 260 261 261 262 263 263 265 267 267 268 269 270 269 270 270 270 272
272 270 268 269 272 272 271 268 267 265 276 280 278 276 278 272 273 277 277 277 279 278 278 277 278 278 278 277 277 277 277 276 275 274 273 272 272 271 270 270 269 268 267 266 265 265 264 262 262 262 262 262 262 262 262 261 260 261 261 261 261 262 262 261 261 260 260 259 259 260 260 261 262 263 266 267 268 269 270 271 272 272 272 271 272 273
278 270 271 272 275 266 268 266 266 274 278 280 278 273 276 279 280 279 278 277 278 278 278 278 278 279 278 278 277 276 276 274 273 273 272 271 271 270 269 268 267 267 266 266 265 264 263 262 262 261 261 261 262 261 261 260 260 260 260 260 261 262 261 260 260 259 259 259 259 260 260 262 263 266 267 267 268 269 270 272 273 274 275 276 276 277
280 276 278 272 277 272 271 275 278 279 280 280 281 280 280 281 281 280 279 279 279 278 279 278 278 279 278 277 276 275 273 273 273 273 270 270 269 268 268 268 267 266 265 264 263 263 262 261 260 260 260 260 260 261 261 261 259 259 258 260 261 260 259 259 258 258 257 258 259 259 260 263 265 266 266 266 267 267 268 270 273 274 277 278 280 280
281 282 280 278 277 280 281 280 280 280 280 279 281 281 280 280 280 280 279 278 280 279 279 278 278 277 276 275 273 272 272 272 271 270 269 268 267 267 267 266 265 265 264 263 262 262 261 260 259 259 258 259 260 260 260 260 260 258 258 259 259 259 259 258 257 257 257 257 258 259 261 263 264 264 265 265 266 266 267 268 270 273 275 278 280 281
280 281 280 278 279 277 273 281 278 279 280 280 280 280 280 280 280 280 280 279 279 279 278 278 277 276 274 273 273 273 272 271 270 269 268 266 266 265 265 264 264 263 262 261 261 261 260 259 258 257 257 257 259 260 260 259 259 259 259 258 259 258 258 257 256 256 257 257 258 260 262 262 262 263 264 264 265 266 267 268 269 270 273 275 277 279
277 283 278 279 278 277 276 279 281 281 281 281 281 280 279 279 279 279 278 278 278 277 276 276 275 273 272 271 272 271 270 270 268 267 266 265 264 264 263 263 262 262 261 261 261 260 258 258 257 257 257 257 258 259 259 258 258 258 258 258 258 257 256 256 256 256 256 257 259 260 261 261 264 263 263 263 264 264 265 266 268 269 270 272 274 276
281 282 275 279 277 279 280 280 279 280 280 280 280 280 281 281 279 278 277 276 275 274 273 272 273 272 272 272 271 270 268 268 266 265 264 263 263 263 262 261 261 260 260 260 259 259 258 257 256 256 256 257 258 258 258 257 257 257 257 257 257 256 255 255 255 256 256 258 259 260 261 261 261 261 261 262 263 264 265 265 266 267 269 271 273 274
280 277 280 279 276 275 276 279 280 275 274 278 279 280 280 280 280 277 275 274 274 273 272 271 271 271 271 271 270 269 266 265 265 264 262 263 262 262 261 260 259 259 259 259 259 258 257 257 256 256 256 257 257 257 256 256 256 256 257 256 256 256 255 255 255 255 256 258 259 259 260 260 260 260 261 262 262 263 263 268 270 269 268 268 273 275
280 280 279 277 276 276 281 282 283 282 281 281 280 280 280 279 278 276 276 275 275 274 272 271 269 268 267 267 267 266 265 264 264 264 262 261 261 261 260 259 258 258 258 258 257 256 256 256 256 256 255 256 257 256 255 255 255 255 256 256 255 255 254 254 255 255 256 257 258 259 259 259 259 260 260 261 261 261 261 262 263 268 270 271 272 273
Wind_Speed
1 1 4 2 2 3 3 2 1 2 3 3 3 4 7 7 7 7 5 4 1 2 1 4 6 9 10 8 8 8 7 6 6 6 4 4 3 2 4 3 2 1 0 2 3 5 7 5 6 5 5 7 9 9 11 11 9 10 12 13 13 12 12 12 13 12 12 13 12 11 12 13 12 12 13 12 11 11 11 12 12 11 10 11 12 12
1 2 2 3 3 2 1 1 1 2 3 4 4 5 7 6 8 2 4 4 6 1 3 3 11 14 10 3 11 9 7 7 7 6 5 4 3 4 4 2 1 1 1 3 5 6 6 5 7 9 8 8 12 11 12 11 11 11 12 12 13 13 13 14 13 13 13 12 12 13 13 13 14 14 13 12 11 11 11 13 10 9 10 12 11 11
1 3 2 2 1 0 1 2 2 3 4 4 5 6 5 7 1 4 2 2 1 5 6 6 10 8 8 4 10 11 7 5 4 5 4 4 4 3 3 1 1 3 3 4 4 5 6 9 10 8 7 8 8 10 10 10 12 12 11 11 12 12 13 12 13 13 14 14 14 13 14 15 15 14 13 12 13 12 12 12 11 8 10 12 12 11
5 1 0 1 1 1 1 4 4 4 4 6 5 4 5 1 3 3 2 6 8 2 8 6 7 8 6 8 8 5 6 5 5 5 4 4 4 3 1 3 2 3 3 4 5 6 6 8 7 10 12 11 11 11 10 10 11 11 10 11 12 12 12 12 12 13 15 17 18 17 15 16 16 16 14 15 13 11 11 12 11 10 8 10 14 13
7 6 1 0 0 1 2 3 3 3 5 2 4 6 3 1 0 1 4 5 7 11 4 5 8 6 5 9 6 5 6 7 6 6 6 4 2 4 2 2 3 3 4 4 4 5 6 7 7 9 10 11 12 12 12 12 12 11 12 11 13 14 14 13 14 16 16 17 16 15 15 14 15 14 13 13 13 12 11 10 9 10 9 11 12 13
8 1 1 0 0 1 1 3 2 1 3 3 1 3 2 1 2 3 5 7 3 5 2 2 7 3 8 11 8 7 6 7 7 8 6 4 4 1 3 3 4 3 3 2 3 5 5 6 10 10 9 10 10 10 10 10 12 13 13 14 15 14 13 14 16 18 16 15 16 16 15 16 15 15 14 13 13 14 13 13 11 9 6 8 10 12
4 1 0 0 0 1 2 4 3 3 2 0 2 0 1 2 3 4 5 2 4 3 2 4 2 12 4 5 10 8 7 7 5 5 4 4 4 2 4 3 3 2 4 2 3 4 6 10 11 11 11 11 12 12 10 9 11 14 14 14 16 15 13 13 15 19 16 15 15 17 17 16 17 18 16 13 13 14 14 11 11 11 10 6 6 9
1 1 3 1 1 2 2 5 0 1 1 4 2 2 0 3 4 5 5 5 8 5 5 5 4 10 10 7 7 13 10 8 7 5 5 6 2 4 3 2 2 2 2 3 4 4 5 8 9 10 10 10 12 13 12 12 13 14 14 17 18 16 14 14 15 17 17 16 15 17 17 16 17 17 19 17 15 14 13 13 13 10 9 8 6 7
1 3 2 3 2 2 5 1 1 1 2 2 1 1 3 3 6 7 6 8 7 6 8 4 5 4 6 2 9 13 9 9 8 8 7 4 4 2 2 2 2 2 2 3 4 6 9 9 10 10 10 10 11 11 12 15 14 14 15 17 18 18 16 16 19 19 16 13 16 18 19 22 21 19 17 15 15 14 13 15 13 11 10 8 6 5
1 1 2 3 2 5 3 1 2 3 1 0 2 3 4 5 6 7 5 7 6 2 12 4 4 6 10 5 7 5 6 10 9 9 6 3 4 1 3 1 1 2 2 3 4 7 8 8 10 10 9 10 10 11 14 16 14 15 15 18 21 21 16 17 17 15 19 20 18 19 21 24 22 21 21 18 18 15 14 16 16 13 11 8 6 5
2 2 3 1 4 1 1 1 1 1 2 3 3 4 5 5 7 5 5 5 2 6 8 4 7 9 6 6 9 11 7 8 9 6 5 5 2 2 1 1 1 2 4 4 6 7 7 7 9 9 10 11 12 12 14 14 15 15 14 16 21 20 16 16 18 19 20 18 16 17 20 23 23 24 24 23 19 14 14 15 16 13 10 7 7 5
2 1 0 2 3 2 3 1 3 2 1 1 0 1 5 6 5 3 3 3 1 7 2 4 3 2 5 2 3 2 4 8 10 8 7 1 2 1 1 1 3 4 4 6 7 8 9 9 9 8 10 10 11 13 15 15 16 15 14 17 19 18 20 21 20 21 23 15 14 16 19 20 19 21 21 23 23 18 16 15 17 15 13 9 7 6
3 7 2 3 3 5 1 0 2 3 1 1 2 4 2 5 3 2 4 3 4 9 2 4 7 7 8 8 2 7 6 7 7 7 6 3 2 2 4 4 4 4 5 7 7 7 8 9 11 12 12 13 12 13 14 15 15 16 14 15 16 19 21 20 19 22 22 18 18 19 17 14 15 19 23 23 21 19 16 14 15 15 13 9 7 6
4 2 3 3 2 3 3 4 1 1 2 3 3 2 1 3 2 6 4 3 3 1 4 6 1 7 8 8 8 11 8 8 9 7 5 4 4 4 2 2 3 4 5 5 6 7 8 9 10 11 12 12 12 14 15 14 15 17 16 16 17 19 20 18 18 19 22 22 18 16 16 17 18 20 21 20 19 18 16 16 17 15 13 10 8 7
5 4 3 4 2 3 3 3 1 2 0 3 2 2 5 3 2 6 1 5 6 6 5 1 7 5 0 3 5 11 10 8 7 7 6 4 4 2 1 2 4 4 5 5 5 6 8 10 11 12 12 12 12 12 13 13 14 15 16 18 20 20 20 22 21 19 19 17 18 17 16 18 18 18 17 16 16 17 17 17 19 19 16 11 7 7
7 8 2 1 1 2 3 1 3 2 2 2 1 4 1 6 2 9 1 1 3 9 9 3 7 2 2 3 5 10 10 8 6 7 5 3 3 2 4 5 4 4 4 4 6 8 9 9 9 10 11 12 12 14 13 13 14 14 15 19 20 19 20 19 19 21 19 20 17 19 20 21 19 16 18 17 16 19 19 19 19 20 19 14 8 7
1 5 0 0 1 2 1 1 1 1 2 1 2 3 3 0 1 3 4 1 1 3 14 2 6 5 2 2 6 7 7 8 7 5 5 3 3 5 1 1 2 4 3 4 5 7 9 9 10 10 11 11 12 12 13 15 15 16 16 16 19 21 18 16 16 17 18 18 19 18 17 19 20 20 20 19 19 17 16 15 16 18 22 16 10 7
2 6 1 2 3 0 0 1 2 0 0 3 3 2 1 2 2 2 3 2 1 7 9 7 8 10 3 6 6 7 6 6 5 4 3 3 1 2 0 1 4 4 4 4 6 8 10 9 10 11 10 10 12 13 12 13 14 12 12 13 17 17 18 19 19 19 18 18 18 17 17 18 20 19 20 19 19 19 18 17 13 15 17 21 14 7
4 8 3 3 0 2 1 0 3 2 0 2 2 1 3 1 1 1 5 4 3 9 9 5 5 8 9 7 6 6 7 3 4 2 2 3 1 0 2 3 4 3 4 5 6 8 8 9 11 11 11 11 11 10 10 11 11 12 13 13 13 16 16 16 16 18 17 16 15 16 18 21 21 19 17 17 19 20 19 19 16 16 15 16 19 11
1 5 3 2 2 1 1 3 5 2 0 2 1 1 1 1 3 3 6 3 3 12 5 12 5 7 4 2 13 7 5 5 2 2 2 1 2 2 2 3 4 4 4 6 8 9 10 10 10 10 11 13 13 11 9 10 10 16 15 13 17 17 16 17 17 16 17 16 15 19 18 19 20 22 18 17 18 19 20 20 18 16 15 15 14 17
1 3 8 2 4 2 2 6 7 8 6 2 3 3 0 2 3 3 1 4 6 5 6 11 15 3 2 1 6 4 7 4 5 1 0 1 1 1 2 4 4 5 6 7 8 9 10 11 10 10 11 12 12 10 9 9 13 14 12 15 15 18 20 19 17 17 16 16 17 17 21 20 19 22 20 19 18 18 18 20 20 15 13 13 14 13
1 3 11 2 2 5 4 1 3 1 4 8 10 10 11 8 4 5 11 3 4 5 6 5 17 4 2 1 1 7 6 5 2 1 1 2 3 2 3 4 4 5 6 8 10 10 10 10 10 12 14 13 13 13 13 13 12 14 14 13 15 16 15 16 18 19 22 16 14 20 18 19 19 19 19 21 20 19 18 18 18 17 17 16 14 12
3 0 0 10 6 6 4 0 1 1 0 3 3 6 8 7 5 5 10 7 0 6 3 11 11 13 6 3 4 8 5 3 2 2 2 3 3 1 2 3 4 4 7 9 10 10 9 8 10 13 15 15 15 14 13 12 13 14 15 15 14 15 17 16 15 13 15 18 21 19 18 20 17 19 20 20 18 19 18 16 17 17 18 17 14 13
5 1 3 9 4 1 2 1 1 1 0 2 4 3 3 9 10 10 10 3 4 2 4 4 9 6 1 1 5 6 6 5 4 3 5 3 2 1 3 3 4 6 8 10 10 10 9 9 10 13 14 15 14 14 15 14 15 15 13 15 17 20 18 15 13 16 17 21 20 19 21 18 19 20 20 19 16 19 19 17 16 16 16 15 15 16
4 3 6 3 5 3 4 3 5 1 1 4 3 5 5 2 2 1 0 3 4 13 12 8 13 12 1 3 5 6 6 6 3 4 6 3 1 1 3 3 4 6 9 10 11 12 11 11 14 14 14 14 14 14 15 15 15 15 17 16 16 17 16 15 15 17 21 19 19 22 18 20 19 19 20 19 18 20 20 19 18 15 17 16 15 14
3 3 6 6 11 13 11 5 5 7 10 5 2 3 5 9 9 2 8 6 10 13 12 11 14 10 4 6 10 7 5 3 2 4 4 3 1 3 3 4 5 8 9 11 12 11 12 13 14 15 16 14 14 14 15 16 16 17 18 18 14 15 16 17 16 19 20 18 22 20 19 19 21 20 20 20 19 19 18 19 18 19 17 17 18 17
2 1 7 11 13 16 12 2 3 3 2 6 3 10 11 9 12 12 4 5 18 10 12 15 14 13 13 9 6 5 7 4 3 3 3 3 2 2 2 3 5 8 10 11 11 12 13 15 17 16 16 15 15 14 14 14 16 17 18 20 19 17 17 16 17 17 16 21 21 18 20 22 20 19 18 18 19 18 18 18 19 19 20 18 18 18
3 2 13 13 20 19 12 5 2 6 7 6 5 7 11 12 12 13 14 19 4 4 18 13 8 13 19 11 8 5 4 3 2 3 2 1 2 2 2 4 8 9 9 9 10 13 16 17 16 16 16 15 15 15 15 15 15 17 17 18 17 18 17 15 16 17 22 21 18 21 24 19 18 20 20 17 18 18 18 19 19 20 20 19 20 18
5 7 10 10 19 17 13 12 4 5 7 7 8 7 11 13 12 16 19 18 10 13 21 15 9 13 11 5 8 6 3 3 3 2 1 1 1 2 4 6 9 9 10 10 10 12 14 16 16 17 17 16 16 17 18 18 18 17 18 17 17 17 18 18 17 22 22 16 20 23 18 17 21 16 19 21 19 19 19 18 18 19 20 19 17 15
3 9 6 7 13 12 12 13 12 12 9 9 12 10 13 15 17 19 19 16 16 20 19 19 18 23 15 12 12 8 4 2 2 2 1 3 3 4 4 7 8 9 10 11 12 13 13 15 16 16 16 16 17 18 19 19 19 19 19 18 19 17 17 15 22 22 17 22 23 15 18 24 17 21 19 19 19 19 19 18 18 18 18 18 16 17
7 7 7 6 10 15 11 7 8 9 10 16 14 12 15 15 17 18 16 16 15 20 23 22 21 24 16 10 9 7 2 5 2 2 1 1 1 3 5 7 8 8 10 11 12 13 14 16 16 16 16 17 18 18 17 18 18 19 20 20 19 18 19 16 23 22 23 21 13 20 20 17 22 17 18 19 21 19 18 19 17 17 18 18 18 17
7 4 4 2 4 9 5 10 10 8 10 16 18 18 16 18 21 19 17 14 13 20 21 17 16 18 14 4 4 3 3 1 2 1 0 0 1 3 5 7 8 8 10 13 12 12 14 16 17 17 17 18 18 19 17 18 20 20 21 19 19 19 20 23 21 22 21 19 22 15 20 22 17 18 19 18 18 19 18 17 17 18 18 17 18 17
7 4 4 4 5 9 1 3 1 4 9 14 24 21 20 23 21 16 14 15 20 19 15 15 19 13 9 3 5 4 1 1 2 1 0 1 2 2 3 5 6 8 12 12 11 12 14 15 16 17 17 17 17 18 19 18 19 19 20 23 22 19 22 18 19 21 23 21 19 20 17 14 19 20 20 18 18 17 17 17 17 17 17 17 17 16
6 7 5 5 5 1 4 4 2 1 9 19 1 11 19 22 22 22 20 20 20 14 14 12 13 10 7 5 6 4 1 1 2 1 2 1 3 4 2 2 4 8 11 11 11 11 12 13 14 15 15 16 17 17 17 16 16 18 19 16 18 22 21 21 20 20 19 22 22 21 22 21 20 19 19 18 18 18 18 18 17 16 17 17 17 17
11 9 6 5 3 3 4 3 0 9 20 2 2 2 8 15 17 18 19 19 14 14 14 14 14 11 9 7 5 2 3 4 3 1 0 2 1 1 1 3 6 8 10 11 12 12 12 14 16 16 17 16 17 16 16 17 17 19 19 18 23 21 18 22 24 22 22 20 15 16 17 19 22 22 21 19 18 18 18 18 18 17 16 16 16 16
10 11 5 4 4 3 3 5 4 13 2 3 4 1 2 1 4 7 13 12 11 13 13 16 15 10 7 5 2 5 6 4 3 2 0 3 6 4 1 5 6 6 8 8 10 11 12 14 15 16 17 16 16 17 15 16 17 18 20 19 15 15 17 17 16 18 18 22 22 18 18 19 21 20 22 21 19 17 18 18 17 17 15 16 15 15
10 6 7 6 6 8 7 11 16 13 22 24 9 7 9 7 7 11 12 12 11 9 10 10 9 6 4 3 7 5 6 5 4 6 5 7 4 2 1 3 5 6 6 7 7 10 10 11 12 15 16 17 17 16 16 17 18 19 20 20 19 19 20 18 19 19 19 19 19 21 20 20 21 22 22 21 20 19 17 17 17 15 13 14 15 15
9 13 7 8 7 7 4 8 6 6 12 11 3 5 12 12 5 1 3 12 7 10 11 10 10 8 3 6 6 6 5 5 3 1 3 3 5 3 1 3 4 4 5 6 6 8 9 10 11 12 13 17 17 15 15 16 18 19 18 18 19 20 20 18 19 20 19 20 20 20 23 24 23 22 22 20 19 20 19 16 14 14 13 14 14 16
6 5 6 9 5 5 5 8 9 9 17 5 1 3 5 9 9 3 2 14 6 13 13 9 10 5 6 6 4 6 4 2 5 4 7 5 2 1 2 3 3 4 5 6 8 9 9 10 12 14 15 16 17 16 15 17 18 16 18 18 17 17 18 19 20 21 23 22 21 20 18 18 20 21 22 22 21 18 18 17 15 13 12 13 13 14
9 7 6 9 11 9 7 8 14 9 11 3 7 3 7 7 8 4 3 9 1 11 7 9 9 8 7 6 6 6 8 7 7 5 4 3 2 1 1 2 3 4 5 6 5 6 9 10 10 12 15 17 17 16 16 15 16 18 16 17 19 19 19 20 22 22 21 22 20 18 18 18 20 21 20 21 20 18 16 14 13 13 12 13 12 13
8 7 10 20 13 12 14 10 8 12 8 8 9 7 7 6 6 3 15 6 1 5 6 9 9 9 8 7 7 7 8 7 5 5 3 3 2 1 1 1 3 3 6 6 7 8 7 8 9 11 13 14 15 16 15 15 16 17 18 18 17 18 20 23 21 22 23 21 20 19 18 18 18 21 21 19 18 16 15 12 12 12 11 12 12 13
5 4 5 5 11 14 12 12 14 14 8 10 9 14 8 8 5 14 2 6 6 6 7 10 10 8 8 9 8 8 7 3 3 3 2 1 1 2 2 1 3 4 4 4 8 9 10 10 11 11 13 12 13 14 14 15 16 17 15 16 17 19 20 20 21 21 21 21 21 20 19 19 19 18 17 16 17 16 13 13 12 12 12 11 12 15
15 12 12 12 6 2 7 10 5 14 5 22 13 6 5 9 8 3 3 4 10 11 10 7 10 6 9 7 6 6 5 3 3 2 2 2 1 2 3 3 4 6 8 9 8 7 9 12 13 12 13 14 14 14 14 16 17 18 18 17 20 21 20 20 20 21 21 21 22 20 19 18 19 17 13 14 16 17 15 13 11 12 12 13 14 15
10 5 5 7 11 9 13 14 15 8 9 17 18 13 12 16 5 6 7 6 2 7 8 7 7 8 8 9 7 6 5 4 2 3 3 2 2 1 2 2 3 5 6 5 6 10 10 11 12 13 12 13 12 13 13 14 17 18 20 21 18 20 20 21 19 20 21 20 20 19 16 17 16 14 16 17 17 18 17 14 12 11 10 11 12 13
20 17 11 11 12 13 14 15 5 7 12 14 15 6 11 14 9 8 7 9 10 7 6 8 8 8 9 9 7 7 4 5 5 5 4 3 1 1 2 3 5 6 6 8 9 9 8 11 15 16 15 13 14 13 12 12 15 20 21 20 20 21 21 21 21 21 21 19 19 18 16 15 15 16 15 16 15 16 16 17 15 12 10 10 11 11
0 13 6 1 9 9 9 1 5 5 10 13 11 5 8 10 6 6 7 7 7 8 9 10 9 10 8 8 9 5 7 6 6 4 3 1 0 1 1 2 3 3 5 7 8 9 9 10 11 12 16 17 14 13 11 11 12 17 20 20 20 20 20 20 22 22 23 21 18 17 17 19 18 15 16 17 14 14 14 15 15 14 13 12 12 12
6 5 8 8 3 9 12 9 9 8 9 13 14 6 1 3 6 6 7 7 7 8 7 7 11 11 11 10 9 8 7 6 5 3 3 1 0 0 1 2 3 4 6 7 8 9 9 10 12 14 15 18 16 13 13 13 12 13 15 18 19 19 20 21 21 21 20 21 16 15 17 19 16 18 16 15 14 12 13 13 13 14 14 14 13 13
9 11 8 15 9 15 5 1 11 12 11 10 10 10 7 5 4 5 3 4 6 5 6 6 8 7 8 8 8 7 6 6 6 4 3 2 1 0 1 1 3 5 5 6 7 7 7 8 10 13 15 16 16 15 15 14 15 15 16 16 18 19 20 19 19 20 20 20 15 14 16 17 23 21 14 14 14 15 15 13 13 13 14 14 15 15
7 16 10 12 12 11 4 3 4 1 2 7 10 10 10 10 8 5 7 8 8 9 6 4 4 8 10 8 7 7 6 6 5 5 4 2 1 1 0 1 2 4 6 7 6 6 8 8 10 11 13 14 14 15 15 15 15 15 17 17 17 19 20 19 21 19 19 17 15 14 16 16 16 16 16 15 15 14 14 15 15 15 14 15 13 15
12 17 8 11 12 12 16 14 10 6 6 7 11 13 11 9 9 8 7 8 8 9 8 9 4 4 4 5 8 8 9 6 5 5 5 3 2 1 0 1 2 4 5 5 5 6 7 8 8 11 13 13 13 14 15 16 15 14 15 16 16 18 18 19 18 18 17 16 15 15 16 16 15 17 16 16 17 18 16 17 21 17 14 15 23 29
16 16 13 15 12 16 15 9 13 12 9 8 10 10 8 6 10 11 11 10 9 10 12 12 9 5 5 3 3 8 7 8 7 5 5 3 2 1 0 0 2 3 5 5 5 6 7 8 9 9 11 12 12 13 14 15 15 15 15 16 16 16 17 17 14 14 14 15 14 17 17 16 16 16 16 16 16 16 17 18 18 22 25 25 27 28
Wind_Direction
58 318 298 248 52 65 40 12 308 321 301 299 287 254 250 254 266 268 282 103 109 4 263 301 302 286 274 169 173 158 132 127 140 141 142 136 115 96 101 73 49 62 297 335 33 24 353 344 325 336 344 345 341 339 334 326 327 332 332 328 325 325 321 319 316 312 310 307 302 296 296 296 295 297 296 289 288 288 287 292 296 297 311 314 314 313
53 317 333 42 48 51 32 2 294 259 242 251 246 254 261 246 267 312 299 145 103 136 269 272 266 261 258 163 163 145 147 159 151 145 137 128 126 124 105 72 103 359 356 7 26 11 343 340 345 357 354 346 344 341 336 331 331 334 329 328 326 324 322 320 318 314 308 305 303 302 300 300 301 298 293 291 287 286 289 287 288 297 304 307 309 310
359 273 146 109 219 239 108 226 221 225 258 252 246 250 264 268 280 302 87 79 311 357 266 265 268 271 279 152 161 157 161 144 131 122 123 119 126 109 90 110 51 21 9 358 18 353 341 352 358 349 346 344 340 333 329 327 330 328 327 322 320 317 317 316 315 312 308 304 300 300 298 297 294 288 284 281 284 283 280 283 284 286 298 307 309 307
315 187 267 95 28 74 270 204 217 256 240 241 241 255 244 297 59 311 275 359 331 318 286 272 279 274 279 140 145 162 124 116 117 122 114 119 110 84 60 110 48 11 13 350 2 347 341 356 349 352 351 344 339 334 328 329 324 320 316 316 317 318 316 312 310 307 304 302 299 294 291 290 286 290 290 284 280 277 275 274 278 287 294 306 307 310
251 278 128 150 161 78 287 302 281 254 264 276 288 272 294 52 310 224 284 312 295 278 255 292 276 256 165 164 150 128 121 134 143 139 145 133 121 166 159 86 75 38 20 343 337 329 341 347 355 2 346 340 336 332 330 326 322 317 314 319 327 324 317 314 313 310 307 304 301 298 291 286 288 284 285 288 285 281 278 274 272 280 299 303 304 308
269 58 297 163 217 213 269 276 261 110 300 272 106 88 142 215 312 309 298 306 319 310 189 338 320 240 173 174 159 140 155 167 161 162 152 141 139 140 88 62 39 30 17 301 308 325 318 331 3 355 346 338 330 327 319 314 313 317 320 326 326 319 317 317 318 312 307 304 303 305 304 302 296 291 287 285 288 288 283 278 278 276 271 288 300 305
239 194 99 320 174 313 273 252 254 130 240 346 232 256 50 306 264 269 279 352 286 243 247 45 243 295 130 188 171 172 174 169 173 151 145 140 153 115 83 66 48 3 324 306 297 309 338 359 358 345 340 337 330 322 315 316 321 321 320 321 318 314 310 312 310 308 303 299 299 298 297 295 293 292 287 282 281 282 281 276 278 282 283 276 282 296
164 133 129 205 200 233 277 268 23 11 60 263 168 221 210 259 256 258 261 222 252 264 266 251 202 262 276 226 167 172 171 170 172 162 147 156 128 81 90 65 52 307 289 301 286 312 358 6 352 339 333 333 326 320 323 326 325 321 323 323 318 311 306 305 304 302 301 296 297 301 300 295 291 288 286 287 284 282 282 280 275 273 274 278 281 289
143 164 202 240 200 216 237 193 147 186 145 207 222 224 254 244 253 252 243 245 246 281 279 195 231 275 255 272 143 159 166 180 186 161 159 152 105 110 84 68 354 321 298 313 326 349 7 359 344 336 331 327 322 325 329 328 324 324 326 322 315 311 310 310 309 303 307 325 326 321 315 308 302 295 289 288 284 283 284 283 279 273 269 271 273 274
1 152 180 152 139 245 170 184 158 111 297 100 331 278 249 246 250 240 235 251 260 253 271 245 208 243 260 149 159 184 184 186 183 155 142 119 114 98 85 1 311 294 303 320 347 5 2 349 336 327 324 329 334 337 335 328 327 326 326 324 321 313 313 311 313 327 326 322 322 319 313 307 304 305 303 297 287 282 284 283 281 275 270 259 256 260
148 317 43 141 217 194 136 146 156 228 249 0 332 277 277 255 241 227 223 230 299 248 261 274 219 200 276 171 189 168 216 172 151 139 133 123 110 89 102 353 313 327 341 338 5 4 348 336 326 324 331 331 333 335 328 323 322 321 321 326 320 314 316 321 320 316 310 310 312 313 308 305 305 308 304 299 291 284 283 282 281 277 269 241 239 246
196 138 84 266 31 85 89 345 185 188 215 83 297 313 323 292 252 237 241 113 183 262 178 359 36 309 205 300 89 135 97 106 139 140 122 126 91 112 42 357 5 358 346 6 5 348 339 331 327 329 330 334 336 335 332 329 325 319 323 323 319 321 322 318 318 322 314 308 309 302 299 297 303 307 304 298 299 296 285 283 282 280 274 257 228 219
257 220 198 68 321 131 134 53 238 180 223 161 269 310 333 287 4 300 56 314 206 233 204 90 49 338 256 231 169 168 127 119 119 115 123 112 89 57 16 20 1 352 8 7 352 342 337 333 332 335 336 336 337 332 326 324 326 325 319 320 324 322 321 317 323 321 317 319 315 308 303 307 310 305 303 297 293 300 297 288 281 276 269 260 228 214
265 15 85 151 55 229 165 138 238 353 233 212 221 197 118 325 315 268 231 240 254 314 183 145 5 261 249 258 214 149 134 119 119 117 103 90 76 48 21 25 9 3 16 355 347 341 332 329 331 332 331 333 330 327 326 328 331 328 323 322 321 319 321 318 316 316 315 313 314 320 324 316 309 304 300 296 292 294 303 306 300 287 277 263 239 224
308 323 231 161 246 141 196 198 169 176 138 216 129 135 181 173 177 277 198 224 236 234 251 336 17 227 10 272 85 121 126 124 118 112 118 117 100 114 140 62 17 11 5 354 339 330 326 326 328 326 326 325 322 320 327 330 330 327 324 325 324 323 326 323 315 315 313 321 323 321 319 316 305 296 297 302 299 294 296 302 303 299 289 269 249 223
204 232 309 11 282 146 182 70 113 50 313 193 199 73 63 237 172 244 174 349 311 311 295 147 202 178 253 138 122 130 132 127 134 118 109 91 76 77 39 28 10 6 347 343 331 325 321 321 323 326 328 326 322 325 325 330 329 325 329 327 320 317 318 320 324 323 322 319 319 318 317 312 308 317 315 310 312 312 309 303 300 298 290 285 266 231
345 260 255 346 344 70 10 9 339 125 197 336 68 205 211 26 140 324 327 179 51 3 260 154 292 266 78 99 138 150 156 147 130 106 81 68 42 62 48 357 4 343 346 326 322 317 320 323 324 322 321 316 319 323 329 331 330 327 327 323 317 312 312 318 320 315 314 312 313 311 311 309 311 312 311 311 308 304 302 303 306 311 306 284 258 235
226 285 227 127 231 15 355 27 270 340 173 106 220 216 228 154 120 143 251 8 310 255 266 153 224 263 162 265 173 168 178 140 104 100 89 91 63 75 200 326 19 341 338 327 322 321 314 314 323 327 320 320 323 322 325 328 324 320 315 310 308 307 313 320 321 316 314 313 312 311 313 311 308 305 304 305 305 306 302 301 301 305 308 309 289 248
91 297 173 312 194 176 303 45 314 174 45 150 192 332 100 211 310 260 88 279 258 257 278 240 225 228 202 231 159 186 182 157 109 97 99 50 71 358 13 0 354 334 322 326 315 313 315 319 321 316 313 314 314 313 316 313 311 311 307 306 312 315 313 313 316 315 315 320 319 316 315 312 308 302 301 303 306 306 303 300 299 300 300 306 308 286
38 240 296 231 347 221 26 124 218 171 341 80 1 335 249 95 209 160 191 206 188 266 303 280 267 249 200 210 173 164 140 129 52 48 44 29 55 30 8 351 336 340 331 331 327 318 317 320 317 316 316 317 317 315 313 309 316 317 310 318 324 318 317 316 316 317 315 313 313 313 311 309 308 304 300 302 305 304 305 304 300 299 301 306 313 317
255 145 266 90 296 88 235 177 224 167 182 159 149 225 195 193 214 124 304 170 208 252 242 288 288 277 247 64 117 126 125 141 140 152 138 152 114 57 20 352 344 333 331 322 317 317 318 317 316 317 320 315 312 310 310 316 320 312 312 317 318 324 320 317 318 318 313 312 309 310 310 308 309 306 307 306 302 300 303 304 303 303 304 305 306 312
156 201 240 121 286 221 226 25 190 157 195 188 179 207 191 168 184 198 254 115 212 222 233 229 261 253 248 165 142 113 131 125 117 147 188 118 82 54 17 339 345 335 329 326 322 322 318 313 316 324 321 317 317 318 320 320 317 316 313 316 321 319 315 317 319 321 319 315 308 308 307 307 305 303 304 306 306 301 300 300 302 308 309 306 303 307
155 20 52 252 222 255 245 125 335 163 148 247 201 233 183 194 140 191 244 234 316 243 221 253 285 272 157 143 122 136 139 139 145 113 98 93 81 59 344 351 334 330 326 324 323 320 316 314 322 323 320 318 318 316 316 316 317 317 316 318 315 315 315 317 315 314 313 311 312 308 309 307 304 302 299 300 300 298 298 298 302 306 304 303 303 303
43 122 335 277 328 345 300 123 258 103 340 288 252 186 171 196 196 207 228 220 215 233 211 239 236 255 300 117 135 137 151 175 142 107 98 97 88 17 348 347 339 334 333 324 321 320 315 318 321 321 319 318 319 321 319 317 316 313 319 323 317 314 316 322 320 314 314 313 306 307 307 305 305 301 302 300 298 298 299 299 298 298 301 303 305 303
131 240 138 314 314 269 261 315 264 220 145 229 208 202 210 252 226 268 309 75 265 233 224 213 250 257 220 160 159 162 180 176 109 95 102 89 11 23 346 343 340 335 327 324 324 322 322 322 323 320 317 319 320 320 319 318 315 317 319 317 312 310 315 319 318 318 316 310 308 308 306 306 304 303 299 298 297 297 298 300 300 299 298 301 299 297
191 183 130 217 258 280 279 248 239 216 214 220 217 212 213 205 225 200 244 203 239 241 217 230 249 248 191 177 173 183 195 279 47 101 94 101 84 11 351 344 341 332 326 326 323 323 324 323 320 320 319 319 321 321 320 318 317 317 315 310 312 314 317 318 317 317 315 312 311 306 303 303 304 301 300 297 296 295 296 296 296 300 299 298 297 297
136 54 206 215 235 248 259 345 292 105 116 190 224 193 220 215 217 221 212 204 232 248 246 235 237 265 253 246 275 301 303 301 350 61 56 50 1 354 358 342 334 331 327 324 323 321 322 321 321 319 318 319 317 318 316 317 316 314 312 311 315 318 317 314 315 312 313 312 308 304 304 306 303 301 297 297 295 295 295 295 296 295 295 296 293 294
85 218 227 227 242 250 265 261 230 165 207 213 189 209 200 211 210 206 207 231 221 353 259 243 229 252 262 270 268 265 292 321 352 84 68 5 337 343 347 333 332 327 321 318 320 325 322 319 318 318 318 317 317 318 318 316 314 312 311 312 316 319 319 316 313 311 314 312 305 305 306 303 298 298 296 294 292 294 294 294 293 293 293 292 291 290
165 233 235 206 247 255 256 265 208 209 230 232 226 198 214 219 217 218 227 237 229 230 251 260 249 249 251 249 260 263 292 295 108 104 141 254 338 360 349 343 331 321 317 316 319 322 319 318 318 318 319 319 320 322 321 320 318 317 314 316 316 316 316 312 308 312 307 303 305 306 302 302 301 293 295 292 290 289 290 289 288 288 290 289 287 285
95 252 241 227 261 256 252 252 259 257 256 250 235 223 232 231 232 232 236 234 229 246 254 265 266 263 266 263 271 277 291 131 133 148 85 24 351 358 346 328 321 315 314 316 320 321 317 315 315 316 319 321 323 323 322 320 319 318 317 318 318 317 317 315 307 302 302 307 304 296 305 307 300 298 293 292 288 288 287 285 284 282 281 280 278 278
153 261 127 205 252 257 248 250 260 265 269 267 259 244 239 246 248 242 242 239 237 250 252 255 262 269 263 259 272 282 213 144 137 87 46 342 39 347 327 318 313 309 312 317 321 320 315 313 315 318 321 323 323 322 322 319 318 318 317 318 319 318 316 316 312 305 303 300 297 304 299 302 302 293 294 293 291 289 285 283 282 280 278 277 274 272
198 263 95 189 242 266 199 210 241 259 267 268 266 246 239 239 245 239 233 227 221 238 246 254 258 257 264 252 260 204 150 150 134 121 67 83 26 340 318 313 307 309 317 318 318 316 315 317 320 321 324 324 323 323 324 323 320 318 316 317 319 315 313 309 303 300 295 297 298 298 307 304 300 297 296 295 291 288 287 283 281 277 274 273 271 266
192 174 188 185 221 254 42 163 74 358 312 283 251 237 223 233 234 240 240 230 228 233 243 239 242 247 263 243 234 229 163 131 98 119 138 359 307 305 296 290 303 315 314 314 315 316 316 318 318 320 323 324 323 322 322 322 317 315 315 318 315 315 312 304 303 304 304 301 303 302 302 297 299 298 298 298 296 291 286 282 279 278 278 276 275 269
183 199 198 175 188 142 100 70 157 38 270 251 61 181 201 219 226 233 236 233 233 217 234 238 249 252 253 240 236 232 163 147 135 150 136 164 293 304 330 335 311 310 309 311 314 314 315 315 316 317 319 318 316 316 315 313 311 309 311 306 311 314 310 309 303 302 297 301 300 304 306 307 303 296 294 293 292 290 288 285 280 279 280 280 279 274
186 190 211 171 203 215 118 137 51 242 252 37 221 254 208 210 215 223 236 238 235 232 239 244 243 236 228 214 206 161 116 101 84 84 58 311 304 62 51 317 311 310 310 312 316 319 319 318 317 318 320 321 318 317 317 316 318 317 313 316 315 308 303 306 307 308 308 304 298 298 300 301 300 295 293 292 289 288 284 281 279 276 275 274 273 272
182 185 161 211 143 20 139 188 233 239 5 262 291 221 35 187 230 232 263 248 229 231 226 236 239 231 227 224 113 107 104 83 44 335 346 98 112 111 357 293 300 303 304 310 313 317 321 322 320 320 320 318 316 317 318 316 319 318 315 310 300 300 303 302 298 294 296 304 307 308 307 305 301 298 295 293 290 285 283 279 274 273 270 271 269 271
177 165 175 220 164 196 216 198 237 321 321 279 217 211 179 184 184 191 239 244 206 215 221 226 237 225 213 137 107 90 75 59 18 331 88 120 99 103 195 263 285 298 301 308 318 313 316 313 316 318 317 315 316 317 318 319 320 315 312 310 308 304 298 296 298 308 312 310 306 304 302 303 302 297 294 293 291 288 285 282 278 274 270 269 268 265
180 180 199 145 250 142 178 258 278 277 261 283 140 193 190 202 173 134 259 271 168 209 216 216 228 221 173 113 113 105 88 54 329 307 165 133 140 181 243 282 284 299 311 314 315 311 310 314 314 313 314 312 312 314 317 319 317 313 307 304 304 309 312 309 306 305 303 305 305 307 306 301 298 296 294 291 287 286 282 276 275 273 271 269 272 275
209 211 219 212 234 138 182 210 228 235 248 135 298 122 146 116 119 106 359 273 179 203 207 190 206 186 159 147 141 105 86 221 231 189 179 177 154 78 305 272 291 304 315 318 317 315 318 321 321 317 314 311 310 317 319 316 313 311 308 307 306 303 303 309 311 314 313 311 311 307 304 301 300 299 296 291 284 279 278 274 271 268 266 264 266 266
192 194 183 234 224 214 206 218 242 220 260 120 130 118 119 118 101 80 321 279 202 183 172 166 179 162 155 151 148 142 160 205 227 211 154 128 104 124 227 291 301 305 309 308 312 316 321 322 317 316 313 315 314 318 318 318 315 312 309 310 312 313 315 314 315 311 305 304 305 305 303 300 297 291 285 282 282 278 270 265 267 262 260 259 259 263
183 204 195 218 214 219 213 246 289 271 231 153 145 141 118 104 97 133 238 198 210 139 168 153 157 160 158 170 156 175 214 192 163 151 115 95 59 290 286 300 303 317 313 319 321 331 323 318 315 308 308 306 313 318 318 320 318 316 315 314 319 315 312 312 311 311 311 307 306 305 300 293 287 286 284 278 272 269 267 263 256 256 252 255 258 257
227 195 268 229 213 213 214 226 240 271 249 136 167 147 144 93 205 224 242 148 151 147 157 153 159 172 163 179 183 195 195 163 103 90 102 111 187 246 252 274 304 303 305 320 329 337 327 323 314 310 310 311 314 317 318 320 318 315 315 316 313 315 317 315 315 311 307 308 305 303 302 297 290 283 279 278 281 280 267 258 248 242 243 245 248 254
184 167 201 205 173 107 210 235 271 261 229 152 142 122 182 171 240 146 124 165 158 166 161 172 162 180 157 188 183 179 173 154 132 148 152 151 160 257 300 328 321 322 328 332 334 339 333 320 318 319 317 317 322 322 324 323 319 320 321 319 317 319 318 317 314 314 313 309 305 301 296 291 287 290 294 292 287 286 277 273 262 251 243 243 246 251
170 153 217 215 173 162 193 199 214 223 109 155 148 181 198 214 165 138 135 183 200 160 166 164 175 171 168 170 174 178 173 161 191 166 162 160 179 259 302 317 322 329 326 329 333 328 329 317 312 313 317 318 322 322 324 325 322 324 323 320 322 321 319 317 317 316 311 305 302 298 298 293 294 307 316 313 314 311 303 290 276 270 267 257 255 258
193 199 183 184 181 176 197 220 208 132 163 170 184 192 189 206 200 175 164 171 168 198 168 162 172 167 164 158 169 168 174 199 189 171 162 182 166 283 321 331 340 331 331 330 331 328 324 320 320 319 318 322 324 326 326 328 326 324 324 325 327 325 324 321 318 317 313 309 303 299 297 302 315 321 317 319 316 316 317 313 308 295 287 279 272 259
262 202 46 110 221 230 272 300 114 127 160 186 202 190 188 210 208 167 168 165 190 172 166 164 162 158 154 152 149 189 188 183 172 155 136 138 140 316 348 345 331 333 334 325 322 326 323 319 316 318 319 321 327 327 329 331 332 328 325 326 326 325 324 321 320 317 315 313 307 300 309 319 322 323 323 321 317 313 314 314 313 310 304 303 294 285
213 175 175 224 175 150 250 166 174 175 184 192 198 198 143 178 195 185 186 180 163 162 162 157 157 160 160 159 171 174 181 167 162 157 137 140 176 300 356 320 323 334 329 322 318 320 325 327 326 326 326 322 328 332 332 332 333 327 325 327 326 325 324 323 318 316 317 318 302 307 323 326 327 327 324 322 319 313 318 315 313 312 312 310 308 304
224 168 174 220 188 205 232 229 189 178 194 187 186 207 221 214 187 194 174 143 136 134 134 141 127 129 136 162 180 166 169 157 157 168 154 155 170 164 286 326 328 324 317 311 310 317 318 321 324 323 326 325 326 332 332 334 333 333 331 330 330 326 324 322 321 320 317 310 305 318 327 327 327 327 324 327 327 327 325 322 319 318 317 316 316 314
133 142 216 185 205 233 236 195 124 67 209 185 194 208 206 205 190 153 132 127 129 128 119 117 127 157 163 172 162 159 155 173 157 158 155 166 170 187 127 356 321 307 308 308 314 323 326 325 322 321 322 321 325 329 331 332 333 334 336 336 332 331 327 324 322 320 317 314 320 323 330 330 329 329 327 324 325 323 323 323 326 324 318 317 314 316
149 198 160 149 212 212 218 203 156 175 222 197 201 205 211 205 172 149 132 135 149 146 152 145 127 123 142 156 160 159 164 163 153 145 160 168 165 157 65 326 317 299 296 300 312 320 319 318 320 324 326 324 328 330 331 332 334 335 337 335 333 332 330 324 321 324 325 325 324 326 332 333 331 330 329 329 330 331 326 326 325 324 324 323 327 330
192 179 161 198 185 221 225 195 199 220 222 202 194 209 202 169 147 154 171 176 183 170 161 149 143 144 155 146 140 148 152 155 164 153 149 151 150 122 123 6 303 298 296 310 319 317 321 322 329 327 326 326 330 331 331 331 333 335 338 336 334 332 330 327 321 323 324 326 328 331 334 331 331 332 330 332 332 332 331 330 329 331 333 336 338 340